GEFSCGP_con_cape1000_138.txt.gz
Probability
0 0 0 0 0 0 0 0 0 0 0 0 0 3 6 6 13 19 35 52 52 52 45 58 55 58 48 48 52 58 48 45 48 42 35 35 39 35 32 32 23 32 32 26
0 0 0 0 0 0 0 0 0 0 0 0 0 3 3 10 13 16 19 35 48 48 55 58 58 58 58 55 52 48 45 45 39 35 29 29 32 29 32 29 23 26 26 19
0 0 0 0 0 0 0 0 0 0 0 0 3 6 6 10 13 13 16 19 39 48 52 55 61 61 55 55 52 48 45 42 35 29 26 26 23 23 29 26 19 23 19 26
0 0 0 0 0 0 0 0 0 0 0 0 0 0 10 13 13 13 10 19 32 45 48 55 58 55 52 48 45 42 35 39 32 29 29 29 29 26 16 19 13 16 19 16
0 0 0 0 0 0 0 0 0 0 0 0 0 0 0 10 13 10 10 13 26 42 45 55 58 45 48 52 52 39 35 35 32 29 29 29 26 16 13 16 13 13 13 19
0 0 0 0 0 0 0 0 0 0 0 0 0 0 0 3 10 10 19 13 23 35 55 52 48 39 35 45 45 35 35 32 32 32 29 26 16 10 13 16 13 16 13 13
0 0 0 0 0 0 0 0 0 0 0 0 0 0 0 0 0 6 13 13 26 39 45 39 42 42 35 39 39 35 32 32 32 32 26 19 13 13 13 13 13 13 13 10
0 0 0 0 0 0 0 0 0 0 0 0 0 0 0 0 0 6 10 10 23 35 29 39 45 39 45 39 39 32 32 29 26 26 26 26 19 13 13 13 13 13 13 13
0 0 0 0 0 0 0 0 0 0 0 0 0 0 0 0 0 3 6 6 19 23 29 42 42 39 42 39 26 26 19 19 23 19 19 19 16 16 13 13 10 13 13 13
0 0 0 0 0 0 0 0 0 0 0 0 0 0 0 0 0 3 6 10 10 16 16 26 35 35 32 32 19 19 19 19 16 16 16 16 16 16 16 13 10 10 10 6
0 0 0 0 0 0 0 0 0 0 0 0 0 0 0 0 0 0 0 13 10 13 16 16 19 23 19 23 16 13 16 16 16 13 13 13 16 16 16 16 16 13 13 6
0 0 0 0 0 0 0 0 0 0 0 0 0 0 0 0 0 0 0 13 16 10 13 13 13 19 19 19 16 13 13 16 16 13 19 19 19 19 23 23 19 16 13 10
0 0 0 0 0 0 0 0 0 0 0 0 0 3 3 3 0 3 0 6 19 6 13 10 13 19 13 13 16 10 10 13 13 13 13 16 13 16 16 19 16 10 6 10
0 0 0 0 0 0 0 0 0 0 0 0 0 3 3 10 6 10 13 16 19 13 10 16 16 19 10 13 10 10 6 13 16 13 16 13 13 13 13 13 10 6 10 6
0 0 0 0 0 0 0 0 0 0 0 0 0 3 3 6 10 10 10 23 26 19 10 16 16 13 13 6 3 10 10 10 13 13 16 16 13 10 10 10 10 6 6 6
0 0 0 0 0 0 0 0 3 3 0 0 3 0 13 19 16 26 26 19 19 29 16 16 16 13 16 10 10 10 13 13 13 16 19 13 16 13 10 10 13 10 10 10
0 0 0 0 0 0 0 0 0 0 0 3 3 10 16 13 23 19 16 16 26 26 26 29 23 13 13 10 13 6 10 10 16 16 16 16 13 13 13 13 10 6 6 10
0 0 0 0 0 0 0 0 0 0 3 3 10 13 10 16 13 10 16 19 19 19 23 35 35 19 10 13 6 6 6 10 10 13 13 13 13 13 13 13 13 16 6 3
0 0 0 0 0 0 0 0 3 0 6 6 10 10 13 10 10 10 10 13 16 13 13 23 29 32 16 16 3 6 10 10 13 13 10 10 10 6 10 13 13 13 3 3
0 0 0 0 0 0 0 0 0 0 10 0 0 6 3 3 3 10 16 19 19 16 13 13 19 29 16 16 13 16 16 6 10 10 13 10 10 6 10 6 6 3 0 0
0 0 0 0 0 0 0 0 0 0 0 3 0 0 3 10 6 10 13 16 13 10 16 19 13 13 16 23 13 10 13 10 6 10 6 3 3 3 6 6 3 0 0 0
0 0 0 0 0 0 0 0 0 3 3 6 3 3 6 10 6 6 10 6 6 10 16 6 10 6 6 3 10 10 6 10 10 3 3 3 3 3 3 3 3 0 0 0
0 0 0 0 0 0 0 0 0 3 6 6 3 3 6 3 3 3 3 3 10 10 6 6 6 3 3 0 0 0 0 6 10 3 3 3 3 3 3 3 3 0 0 0
0 0 0 0 0 0 0 0 3 6 6 6 6 3 3 3 0 0 6 3 3 0 0 0 0 0 3 0 0 0 0 0 0 3 3 3 3 3 3 3 3 0 0 0
0 0 0 0 0 0 0 0 0 3 3 3 6 0 0 0 0 0 0 0 0 0 0 0 0 0 0 0 0 0 0 0 0 0 0 0 0 0 0 0 0 0 0 0
0 0 0 0 0 0 0 0 0 0 0 0 0 0 0 0 0 0 0 0 0 0 0 0 0 0 0 0 0 0 0 0 0 0 0 0 0 0 0 0 0 0 0 0

GEFSCGP_con_cape1000_144.txt.gz
Probability
0 0 0 0 0 0 0 0 0 0 0 0 0 0 3 10 23 29 29 29 32 35 35 32 35 42 35 26 23 23 19 16 19 23 23 23 23 23 23 19 16 13 13 19
0 0 0 0 0 0 0 0 0 0 0 0 0 0 0 6 13 23 16 26 32 32 32 29 32 35 35 29 23 19 23 16 19 26 16 13 16 16 16 16 13 10 13 16
0 0 0 0 0 0 0 0 0 0 0 0 0 0 3 3 6 13 10 13 26 35 32 32 39 35 35 35 32 26 19 19 19 19 13 13 10 13 10 16 13 10 16 13
0 0 0 0 0 0 0 0 0 0 0 0 0 0 0 3 3 10 13 19 23 26 32 35 42 32 29 26 26 23 16 16 16 13 13 13 16 16 16 10 10 6 13 13
0 0 0 0 0 0 0 0 0 0 0 0 0 0 0 0 3 0 6 10 16 26 23 29 39 39 26 26 23 19 26 26 16 16 10 10 13 13 13 10 10 6 3 6
0 0 0 0 0 0 0 0 0 0 0 0 0 0 0 0 3 0 3 3 16 19 26 29 35 26 26 23 26 26 26 19 13 10 6 10 10 6 10 6 10 6 3 3
0 0 0 0 0 0 0 0 0 0 0 0 0 0 0 0 0 0 0 6 16 19 26 26 19 26 23 26 26 26 23 23 16 10 10 10 6 6 10 10 3 3 3 3
0 0 0 0 0 0 0 0 0 0 0 0 0 0 0 0 0 0 3 3 10 16 23 32 29 19 26 26 32 19 19 23 16 16 13 10 6 6 6 6 6 3 3 3
0 0 0 0 0 0 0 0 0 0 0 0 0 0 0 0 3 3 3 10 13 10 23 23 26 32 26 26 23 26 19 23 16 16 13 10 10 6 6 6 6 3 3 3
0 0 0 0 0 0 0 0 0 0 0 0 0 0 0 0 0 6 3 3 13 10 10 19 23 29 19 16 16 19 29 26 16 16 13 13 10 10 6 6 6 3 3 3
0 0 0 0 0 0 0 0 0 0 0 0 0 0 0 0 0 0 6 6 10 10 10 10 6 16 16 16 16 19 23 23 16 13 13 13 13 10 10 6 6 6 3 3
0 0 0 0 0 0 0 0 0 0 0 0 0 0 0 0 0 0 6 3 0 6 10 6 10 13 13 16 19 19 19 16 13 13 13 13 13 13 13 10 6 6 6 3
0 0 0 0 0 0 0 0 0 0 0 0 0 0 0 3 3 3 6 10 3 3 3 3 16 16 16 16 16 10 10 10 13 10 10 13 13 13 13 13 13 13 6 3
0 0 0 0 0 0 0 0 0 0 0 0 0 0 0 3 3 3 10 3 6 3 0 3 10 13 16 16 16 10 10 10 10 10 10 10 10 13 13 10 10 10 10 6
0 0 0 0 0 0 0 0 0 0 0 0 0 0 3 3 3 10 10 6 10 13 3 6 10 10 13 13 13 13 13 10 10 6 6 6 6 6 6 10 10 10 10 10
0 0 0 0 0 0 0 0 0 0 0 0 0 3 10 10 10 10 6 6 13 10 6 6 6 10 10 13 13 10 6 6 6 6 6 6 6 6 3 6 6 10 10 6
0 0 0 0 0 0 0 0 0 0 0 0 0 3 10 13 10 6 6 10 10 13 6 6 6 10 10 13 6 0 0 0 0 3 6 6 6 6 6 6 6 6 6 3
0 0 0 0 0 0 0 0 0 0 3 0 3 6 10 6 3 3 3 6 10 13 13 10 6 3 3 3 6 3 3 0 3 3 3 0 3 3 3 3 3 3 3 3
0 0 0 0 0 0 0 0 0 0 0 0 10 10 6 6 3 3 6 10 3 6 3 3 3 3 0 0 3 6 6 0 0 0 0 0 6 6 3 3 0 0 3 3
0 0 0 0 0 0 0 0 0 0 0 0 6 3 0 3 0 0 6 6 3 0 3 3 3 0 0 0 0 0 3 3 3 3 6 6 6 6 6 0 0 0 3 3
0 0 0 0 0 0 0 0 0 0 0 0 0 0 0 3 6 6 6 3 3 0 0 0 0 0 0 0 0 0 0 0 0 0 0 3 6 3 0 0 0 0 3 3
0 0 0 0 0 0 0 0 0 0 0 0 0 0 0 3 10 0 0 0 0 0 0 0 0 0 0 0 0 0 0 0 0 0 0 0 0 0 0 0 0 3 3 3
0 0 0 0 0 0 0 0 0 0 0 0 0 0 0 0 0 0 0 0 0 0 0 0 0 0 0 0 0 0 0 0 0 3 0 0 0 0 0 3 3 3 3 3
0 0 0 0 0 0 0 0 0 0 0 0 0 0 0 0 0 0 0 0 0 0 0 0 0 0 0 0 0 0 0 0 0 0 3 3 0 3 3 3 3 3 3 3
0 0 0 0 0 0 0 0 0 0 0 0 0 0 0 0 0 0 0 0 0 0 0 0 0 0 0 0 0 0 0 0 0 0 0 0 0 0 0 0 0 0 0 0
0 0 0 0 0 0 0 0 0 0 0 0 0 0 0 0 0 0 0 0 0 0 0 0 0 0 0 0 0 0 0 0 0 0 0 0 0 0 0 0 0 0 0 0

GEFSCGP_con_cape1000_150.txt.gz
Probability
0 0 0 0 0 0 0 0 0 0 0 0 0 0 3 23 26 42 61 84 84 90 90 87 90 90 94 94 87 81 84 81 77 77 87 90 94 87 90 94 81 84 84 87
0 0 0 0 0 0 0 0 0 0 0 0 0 0 13 26 32 45 55 81 87 94 94 87 87 87 87 87 84 84 87 87 87 84 84 90 87 90 77 81 87 87 77 87
0 0 0 0 0 0 0 0 0 0 0 0 0 0 10 26 39 48 55 81 87 97 94 87 84 84 81 84 81 74 74 81 81 81 84 71 84 74 61 71 74 77 77 77
0 0 0 0 0 0 0 0 0 0 0 0 0 0 3 26 35 55 52 61 77 97 90 87 84 84 84 81 77 74 74 74 71 74 61 58 58 45 48 68 74 77 74 77
0 0 0 0 0 0 0 0 0 0 0 0 0 0 3 19 23 26 42 52 65 65 81 81 81 81 77 71 74 74 77 74 71 74 68 65 55 48 48 55 65 68 77 74
0 0 0 0 0 0 0 0 0 0 0 0 0 0 3 10 19 19 35 48 58 65 68 65 81 81 71 71 68 68 77 77 71 68 61 58 55 52 45 48 45 52 58 68
0 0 0 0 0 0 0 0 0 0 0 0 0 0 3 13 23 19 32 39 52 58 68 68 74 74 71 68 65 58 71 71 71 55 52 48 42 48 48 52 48 45 39 42
0 0 0 0 0 0 0 0 0 0 0 0 0 0 10 10 19 23 26 42 45 48 68 74 84 77 65 65 61 68 68 68 61 48 48 52 48 58 55 52 42 48 45 42
0 0 0 0 0 0 0 0 0 0 0 0 0 3 13 26 19 26 29 39 55 45 68 77 77 74 68 61 61 52 68 65 58 42 48 39 39 39 39 48 52 39 45 39
0 0 0 0 0 0 0 0 0 0 0 0 0 0 3 29 29 23 32 48 48 68 74 71 77 65 65 65 58 55 52 61 55 52 48 39 45 42 48 42 39 42 45 39
0 0 0 0 0 0 0 0 0 0 0 0 0 0 6 19 23 23 19 42 55 55 65 68 71 68 65 52 48 55 52 58 61 48 45 48 52 45 48 42 39 39 45 45
0 0 0 0 0 0 0 0 0 0 0 0 0 3 13 19 26 26 35 48 61 65 65 58 61 58 61 55 52 48 48 45 48 48 48 52 45 48 45 42 35 35 42 39
0 0 0 0 0 0 0 0 0 0 0 0 0 3 19 32 29 35 45 52 61 61 61 58 58 65 61 55 55 55 48 45 45 48 52 52 45 45 42 39 39 39 39 42
0 0 0 0 0 0 0 3 3 0 0 0 0 3 23 32 39 52 48 52 58 61 61 58 61 68 55 52 58 52 48 48 39 48 48 48 42 39 35 32 32 32 35 32
0 0 0 0 0 0 0 0 3 0 0 0 0 3 19 42 45 55 55 58 61 68 65 55 55 65 61 58 58 52 48 48 45 45 39 39 42 45 39 32 35 29 32 29
0 0 0 0 0 0 0 0 0 0 0 0 3 3 32 48 52 65 61 61 68 65 61 55 61 58 58 58 58 52 45 52 42 42 26 26 35 39 42 32 32 29 35 35
0 3 0 0 0 0 0 0 0 0 0 3 3 19 42 55 52 61 61 61 58 58 55 58 61 58 65 61 58 52 48 45 45 42 35 35 35 32 29 19 23 29 32 32
3 6 3 0 0 0 0 6 6 6 10 13 23 35 48 52 58 65 58 55 52 45 48 48 48 58 52 48 58 52 45 39 42 45 39 32 35 35 35 29 29 29 32 29
3 0 0 0 0 0 0 3 6 6 10 19 29 42 48 58 52 48 48 48 45 45 45 48 48 58 45 42 48 55 52 42 42 35 32 35 32 39 39 32 32 35 29 26
10 3 0 0 0 0 0 3 6 10 16 32 42 48 48 55 52 42 45 42 39 35 32 32 35 45 45 39 45 55 52 55 42 42 39 32 32 35 32 29 29 29 29 26
0 0 0 0 0 0 3 3 3 3 29 39 29 45 55 55 58 48 35 35 32 26 26 26 35 42 42 39 32 42 39 45 48 48 48 39 35 35 32 32 32 26 23 23
0 0 0 0 0 0 6 3 10 29 39 35 35 48 55 45 42 35 32 23 23 23 19 19 26 26 26 26 26 29 42 35 48 42 32 26 35 19 16 29 26 23 19 13
0 0 0 0 0 10 3 13 16 19 35 42 42 42 39 32 29 23 23 19 16 19 19 16 16 16 19 23 29 26 26 32 35 26 26 23 23 16 13 16 19 19 16 10
0 0 0 6 6 6 6 6 13 19 23 26 35 26 19 23 19 13 13 16 13 13 16 16 16 16 19 13 10 13 19 16 16 10 10 10 6 6 3 3 3 3 3 3
0 0 3 6 6 6 10 13 19 23 23 19 16 13 19 13 6 3 6 6 6 10 10 3 10 13 13 10 6 10 6 3 3 6 3 3 3 3 3 0 0 0 0 0
0 0 0 0 10 10 10 16 16 13 16 19 10 6 3 0 0 0 0 6 6 6 6 3 3 3 6 3 3 3 3 3 0 0 0 3 3 0 0 0 0 0 0 0

GEFSCGP_con_cape1000_156.txt.gz
Probability
0 0 0 0 0 0 0 0 0 0 0 0 0 0 0 0 0 13 39 61 84 94 97 100 97 100 100 100 94 94 90 90 90 90 87 84 84 87 90 94 90 97 94 97
0 0 0 0 0 0 0 0 0 0 0 0 3 0 0 0 3 10 39 65 84 94 94 97 97 100 100 97 94 94 94 90 90 90 90 87 81 77 77 84 90 97 97 100
0 0 0 0 0 0 0 0 0 0 0 0 0 0 0 3 3 16 35 55 74 84 97 94 94 97 97 97 94 90 94 90 90 87 90 84 87 81 81 87 90 87 90 94
0 0 0 0 0 0 0 0 0 0 0 0 0 0 0 3 13 16 26 39 61 81 90 94 97 97 94 94 94 90 90 87 90 87 87 77 74 71 71 81 81 84 87 87
0 0 0 0 0 0 0 0 0 0 0 0 0 0 0 10 10 13 19 26 42 71 84 87 81 90 87 87 90 90 90 90 90 90 87 81 77 74 77 77 77 77 77 87
0 0 0 0 0 0 0 0 0 0 0 0 0 0 3 6 10 19 26 32 52 55 74 87 87 90 90 81 81 84 87 90 90 90 84 81 87 81 71 68 65 65 81 84
0 0 0 0 0 0 0 0 0 0 0 0 0 0 3 10 16 23 26 48 42 65 74 84 87 87 87 84 81 81 87 87 87 84 84 90 84 74 71 71 71 74 65 74
0 0 0 0 0 0 0 0 0 0 0 0 0 0 10 16 19 29 39 45 42 55 77 81 87 87 87 84 81 84 84 81 81 81 87 81 87 77 77 68 68 65 65 61
0 0 0 0 0 0 0 0 0 0 0 0 0 3 16 19 23 26 29 32 42 48 65 71 84 77 84 84 84 84 81 84 84 81 81 81 84 84 81 77 71 68 68 61
0 0 0 0 0 0 0 0 0 0 6 0 0 0 16 23 26 26 29 32 42 55 71 74 74 71 71 77 84 81 81 77 81 77 77 71 74 74 71 74 74 68 65 68
0 0 0 0 0 0 0 0 0 0 0 0 0 0 6 26 35 32 32 32 35 61 61 65 71 77 74 81 77 77 81 74 71 74 74 74 71 68 68 58 58 68 65 61
0 0 0 0 0 0 0 0 0 0 10 3 0 6 10 13 16 29 29 39 45 61 61 65 71 77 81 68 77 71 68 71 71 74 74 77 74 68 55 48 52 65 58 52
0 0 0 0 0 0 0 0 0 0 0 0 0 10 10 10 16 26 35 45 58 61 58 58 71 81 77 84 87 74 68 65 65 74 71 74 77 68 65 55 58 52 52 48
0 0 0 0 0 0 0 0 0 0 0 0 0 6 13 16 32 32 39 55 55 68 71 65 68 74 77 71 77 74 71 71 68 74 74 71 71 68 61 55 55 45 45 42
0 0 0 0 0 0 0 0 0 0 0 0 6 10 13 13 35 42 52 65 74 74 71 74 81 77 77 71 74 68 65 74 74 68 61 55 68 58 61 58 42 45 42 35
0 0 0 0 0 0 0 0 0 0 0 3 3 10 23 35 35 58 55 65 68 68 68 65 77 81 77 74 71 74 68 71 74 68 61 58 55 55 52 52 52 48 45 39
0 0 0 0 0 0 0 0 0 0 3 0 0 19 29 35 42 58 52 65 61 68 65 65 68 77 81 71 81 71 71 68 68 65 55 55 52 45 45 42 45 48 45 35
16 13 6 0 0 0 0 0 0 3 6 6 23 29 39 39 48 65 61 65 61 58 61 58 58 65 65 68 68 68 68 58 58 58 45 48 48 45 45 42 39 48 42 42
19 45 0 0 0 0 0 3 0 3 3 13 19 39 39 42 48 52 55 58 55 55 55 55 55 58 61 65 65 55 65 61 55 58 52 52 48 48 48 42 35 45 39 35
3 32 6 0 0 0 6 3 0 3 23 29 45 35 35 42 52 48 55 52 48 52 52 58 58 58 68 71 61 58 58 61 55 58 58 55 55 52 45 35 32 35 35 23
10 19 3 3 0 0 3 6 3 3 45 58 58 52 61 61 52 45 39 48 45 48 52 55 58 58 58 61 61 55 55 52 48 55 55 52 45 45 35 35 35 26 26 19
3 6 6 3 0 3 10 19 26 55 61 65 61 61 58 61 58 42 48 48 45 45 32 32 35 42 45 48 48 45 52 52 39 42 39 39 32 29 19 16 13 19 16 16
0 6 3 13 19 35 32 45 48 48 52 55 65 55 58 61 42 42 39 35 35 32 32 32 35 39 39 42 45 39 42 42 32 35 35 32 26 16 19 16 16 10 6 6
6 10 10 16 26 26 23 23 29 35 48 45 48 45 45 45 35 32 35 32 32 23 26 26 23 29 29 29 26 29 19 26 26 26 19 16 6 3 3 0 3 3 3 6
0 10 10 16 16 10 26 26 23 29 32 26 39 32 32 42 32 35 29 29 26 19 19 23 26 26 26 19 13 13 19 13 19 10 10 3 3 0 0 0 0 0 0 0
0 10 10 16 16 10 13 23 23 29 35 32 29 32 23 26 23 10 10 13 10 13 16 13 13 6 6 10 6 6 3 10 10 10 3 0 0 3 0 0 0 0 0 0